Change the Weather History Date:

Friday, February 22, 2013

  Actual Average Record
Temperature  
Mean Temperature 24 °F -  
Max Temperature 28 °F 30 °F 57 °F (1961)
Min Temperature 19 °F 8 °F -25 °F (1965)
Degree Days  
Heating Degree Days 42    
Moisture  
Dew Point 18 °F    
Average Humidity 77    
Maximum Humidity 86    
Minimum Humidity 69    
Precipitation  
Precipitation 0.01 in - - ()
Sea Level Pressure  
Sea Level Pressure 29.91 in    
Wind  
Wind Speed 4 mph (NNE)    
Max Wind Speed 9 mph    
Max Gust Speed -    
Visibility 6 miles    
Events Snow    
Averages and records for this station are not official NWS values.
T = Trace of Precipitation, MM = Missing Value Source: NWS Daily Summary

Daily Weather History Graph

Daily Weather History Graph

Search for Another Location

Airport or City:

Trip Planner

Search our weather history database for the weather conditions in past years. The results will help you decide how hot, cold, wet, or windy it might be!

Date:

Astronomy

Feb. 22, 2013 Rise Set
Actual Time 7:06 AM CST 5:50 PM CST
Civil Twilight 6:35 AM CST 6:21 PM CST
Nautical Twilight 6:00 AM CST 6:56 PM CST
Astronomical Twilight 5:25 AM CST 7:31 PM CST
Moon 2:56 PM CST (2/22) 4:59 AM CST (2/22)
Length of Visible Light 11h 45m
Length of Day
10h 44m
Waxing Gibbous, 90% of the Moon is Illuminated
Feb 22
Waxing Gibbous
Feb 25
Full
Mar 4
Last Quarter
Mar 11
New
Mar 19
First Quarter

Hourly Weather History & Observations

Time (CST) Temp. Windchill Dew Point Humidity Pressure Visibility Wind Dir Wind Speed Gust Speed Precip Events Conditions
12:13 AM 19.4 °F 12.8 °F 14.0 °F 80% 30.12 in 5.0 mi NNE 4.6 mph - N/A   Haze
12:32 AM 19.4 °F 12.8 °F 14.0 °F 80% 30.12 in 5.0 mi NNE 4.6 mph - N/A   Haze
12:52 AM 19.4 °F 14.3 °F 15.8 °F 86% 30.11 in 7.0 mi NNE 3.5 mph - N/A   Overcast
1:13 AM 19.4 °F 11.5 °F 15.8 °F 86% 30.10 in 4.0 mi NNE 5.8 mph - N/A   Haze
1:32 AM 21.2 °F 14.9 °F 15.8 °F 80% 30.09 in 3.0 mi NNE 4.6 mph - N/A   Haze
1:53 AM 19.4 °F 11.5 °F 15.8 °F 86% 30.08 in 3.0 mi NNE 5.8 mph - N/A   Haze
2:13 AM 19.4 °F 10.4 °F 15.8 °F 86% 30.06 in 5.0 mi North 6.9 mph - N/A   Haze
2:32 AM 21.2 °F 14.9 °F 15.8 °F 80% 30.06 in 7.0 mi NNE 4.6 mph - N/A   Overcast
2:53 AM 21.2 °F 12.6 °F 15.8 °F 80% 30.04 in 10.0 mi NNE 6.9 mph - N/A   Overcast
3:12 AM 21.2 °F 12.6 °F 15.8 °F 80% 30.02 in 10.0 mi NNE 6.9 mph - N/A   Overcast
3:33 AM 21.2 °F 14.9 °F 15.8 °F 80% 30.02 in 10.0 mi NE 4.6 mph - N/A   Overcast
3:53 AM 23.0 °F 13.9 °F 17.6 °F 80% 30.00 in 7.0 mi ENE 8.1 mph - N/A   Overcast
4:12 AM 23.0 °F 13.1 °F 17.6 °F 80% 30.00 in 5.0 mi ENE 9.2 mph - N/A   Haze
4:33 AM 21.2 °F 13.6 °F 15.8 °F 80% 29.98 in 7.0 mi NNE 5.8 mph - N/A   Overcast
4:53 AM 21.2 °F 13.6 °F 15.8 °F 80% 29.98 in 10.0 mi North 5.8 mph - N/A   Overcast
5:12 AM 21.2 °F 14.9 °F 15.8 °F 80% 29.98 in 10.0 mi NNE 4.6 mph - N/A   Overcast
5:33 AM 21.2 °F 16.4 °F 15.8 °F 80% 29.98 in 10.0 mi ENE 3.5 mph - N/A   Overcast
6:12 AM 21.2 °F 13.6 °F 17.6 °F 86% 29.97 in 7.0 mi East 5.8 mph - N/A Snow Light Snow
6:33 AM 21.2 °F 14.9 °F 17.6 °F 86% 29.96 in 3.0 mi ENE 4.6 mph - N/A Snow Light Snow
6:52 AM 21.2 °F 14.9 °F 17.6 °F 86% 29.95 in 2.5 mi ENE 4.6 mph - N/A Snow Light Snow
7:13 AM 21.2 °F 14.9 °F 17.6 °F 86% 29.95 in 4.0 mi NE 4.6 mph - N/A Snow Light Snow
7:32 AM 21.2 °F - 17.6 °F 86% 29.95 in 5.0 mi Calm Calm - N/A Snow Light Snow
7:52 AM 21.2 °F - 17.6 °F 86% 29.95 in 1.8 mi Calm Calm - N/A Snow Light Snow
8:13 AM 23.0 °F - 17.6 °F 80% 29.95 in 3.0 mi Calm Calm - N/A Snow Light Snow
8:32 AM 23.0 °F - 17.6 °F 80% 29.95 in 3.0 mi Calm Calm - N/A Snow Light Snow
8:52 AM 23.0 °F - 17.6 °F 80% 29.94 in 2.5 mi Calm Calm - N/A Snow Light Snow
9:13 AM 23.0 °F - 17.6 °F 80% 29.93 in 2.0 mi Calm Calm - N/A Snow Light Snow
9:32 AM 23.0 °F - 17.6 °F 80% 29.93 in 3.0 mi Calm Calm - N/A Snow Light Snow
9:52 AM 24.8 °F 20.5 °F 17.6 °F 74% 29.92 in 10.0 mi NE 3.5 mph - N/A   Mostly Cloudy
10:13 AM 24.8 °F - 17.6 °F 74% 29.92 in 10.0 mi Calm Calm - N/A Snow Light Snow
10:32 AM 26.6 °F - 17.6 °F 69% 29.92 in 10.0 mi Calm Calm - N/A   Overcast
10:52 AM 26.6 °F 22.6 °F 17.6 °F 69% 29.91 in 5.0 mi ENE 3.5 mph - N/A Snow Light Snow
11:13 AM 26.6 °F 21.2 °F 19.4 °F 74% 29.90 in 1.8 mi ENE 4.6 mph - N/A Snow Light Snow
11:32 AM 26.6 °F 21.2 °F 19.4 °F 74% 29.90 in 2.0 mi East 4.6 mph - N/A Snow Light Snow
11:52 AM 26.6 °F - 19.4 °F 74% 29.89 in 2.5 mi Calm Calm - N/A Snow Light Snow
12:13 PM 26.6 °F 20.0 °F 19.4 °F 74% 29.89 in 1.8 mi NNW 5.8 mph - N/A Snow Light Snow
12:32 PM 26.6 °F 18.2 °F 19.4 °F 74% 29.88 in 1.8 mi NNW 8.1 mph - 0.01 in Snow Light Snow
12:52 PM 26.6 °F 19.1 °F 19.4 °F 74% 29.87 in 2.5 mi NNW 6.9 mph - 0.01 in Snow Light Snow
1:13 PM 26.6 °F 17.5 °F 19.4 °F 74% 29.86 in 5.0 mi North 9.2 mph - N/A Snow Light Snow
1:32 PM 26.6 °F 19.1 °F 19.4 °F 74% 29.86 in 7.0 mi North 6.9 mph - N/A Snow Light Snow
1:53 PM 26.6 °F 20.0 °F 19.4 °F 74% 29.85 in 10.0 mi North 5.8 mph - N/A   Overcast
2:12 PM 26.6 °F 19.1 °F 19.4 °F 74% 29.84 in 10.0 mi North 6.9 mph - N/A   Overcast
2:32 PM 26.6 °F 20.0 °F 19.4 °F 74% 29.84 in 10.0 mi North 5.8 mph - N/A   Overcast
2:53 PM 26.6 °F 21.2 °F 19.4 °F 74% 29.84 in 10.0 mi North 4.6 mph - N/A   Overcast
3:13 PM 28.4 °F 23.3 °F 19.4 °F 69% 29.83 in 10.0 mi North 4.6 mph - N/A   Overcast
3:32 PM 28.4 °F 23.3 °F 19.4 °F 69% 29.83 in 10.0 mi NNE 4.6 mph - N/A   Overcast
3:53 PM 28.4 °F 22.2 °F 19.4 °F 69% 29.83 in 10.0 mi ENE 5.8 mph - N/A   Overcast
4:12 PM 28.4 °F 24.6 °F 19.4 °F 69% 29.84 in 10.0 mi NNE 3.5 mph - N/A   Overcast
4:33 PM 28.4 °F - 19.4 °F 69% 29.84 in 10.0 mi Calm Calm - N/A   Overcast
4:53 PM 28.4 °F 24.6 °F 19.4 °F 69% 29.85 in 7.0 mi NNW 3.5 mph - N/A   Overcast
5:12 PM 28.4 °F - 19.4 °F 69% 29.84 in 10.0 mi Calm Calm - N/A   Overcast
5:33 PM 26.6 °F 22.6 °F 19.4 °F 74% 29.84 in 4.0 mi North 3.5 mph - N/A Snow Light Snow
5:53 PM 26.6 °F - 19.4 °F 74% 29.85 in 2.5 mi Calm Calm - N/A Snow Light Snow
6:12 PM 26.6 °F 22.6 °F 19.4 °F 74% 29.85 in 2.5 mi North 3.5 mph - N/A Snow Light Snow
6:33 PM 26.6 °F - 19.4 °F 74% 29.85 in 2.5 mi Calm Calm - N/A Snow Light Snow
6:53 PM 24.8 °F 20.5 °F 19.4 °F 80% 29.85 in 3.0 mi NW 3.5 mph - N/A Snow Light Snow
7:12 PM 24.8 °F - 19.4 °F 80% 29.85 in 4.0 mi Calm Calm - N/A Snow Light Snow
7:33 PM 24.8 °F - 19.4 °F 80% 29.85 in 4.0 mi Calm Calm - N/A Snow Light Snow
7:53 PM 24.8 °F - 19.4 °F 80% 29.85 in 7.0 mi Calm Calm - N/A Snow Light Snow
8:12 PM 24.8 °F - 19.4 °F 80% 29.85 in 7.0 mi Calm Calm - N/A Snow Light Snow
8:33 PM 24.8 °F - 19.4 °F 80% 29.84 in 10.0 mi Calm Calm - N/A Snow Light Snow
8:52 PM 24.8 °F 19.1 °F 19.4 °F 80% 29.84 in 7.0 mi NW 4.6 mph - N/A Snow Light Snow
9:12 PM 24.8 °F 19.1 °F 19.4 °F 80% 29.84 in 10.0 mi NNW 4.6 mph - N/A   Overcast
9:33 PM 26.6 °F 20.0 °F 19.4 °F 74% 29.83 in 7.0 mi NNW 5.8 mph - N/A Snow Light Snow
9:52 PM 26.6 °F 20.0 °F 19.4 °F 74% 29.82 in 10.0 mi North 5.8 mph - N/A Snow Light Snow
10:13 PM 26.6 °F 21.2 °F 19.4 °F 74% 29.82 in 10.0 mi North 4.6 mph - N/A   Overcast
10:32 PM 26.6 °F 21.2 °F 19.4 °F 74% 29.82 in 10.0 mi North 4.6 mph - N/A   Overcast
10:52 PM 26.6 °F 20.0 °F 19.4 °F 74% 29.82 in 10.0 mi North 5.8 mph - N/A   Overcast
11:13 PM 26.6 °F 21.2 °F 19.4 °F 74% 29.82 in 10.0 mi North 4.6 mph - N/A   Overcast
11:32 PM 26.6 °F - 19.4 °F 74% 29.82 in 10.0 mi Calm Calm - N/A   Overcast
11:53 PM 24.8 °F 20.5 °F 19.4 °F 80% 29.82 in 10.0 mi NNW 3.5 mph - N/A   Overcast